Location: Stonelick Lake State Park
(39.2170°N, 84.0850°W)
Time: 01:35:05
(UTC-05:00)

Daily predictions for brighter satellites

Satellite Brightness Start Highest point End
(mag) Time Altitude Azimuth Time Altitude Azimuth Time Altitude Azimuth
Atlas Centaur 2 3.7 04:16:10 41° SSE 04:16:10 41° SSE 04:22:38 10° ESE
Lacrosse 5 rocket 3.9 04:23:56 21° ENE 04:23:56 21° ENE 04:25:50 10° ENE
SL-16 R/B 3.2 04:29:36 43° ENE 04:29:36 43° ENE 04:33:39 10° NNE
USA 229 DEB 4.2 04:49:11 38° N 04:51:58 61° NE 04:59:13 10° SE
CZ-4B R/B 3.4 04:46:18 10° NNE 04:51:59 72° ESE 04:57:36 10° S
USA 229 4.2 04:49:15 38° N 04:52:04 61° NE 04:59:18 10° SE
Cosmos 2297 3.7 04:54:23 74° NE 04:54:39 76° ENE 05:00:21 10° SSE
Cosmos 2016 Rocket 3.8 04:56:33 76° SSW 04:56:33 76° SSW 05:02:10 10° S
Cosmos 2278 Rocket 4.3 05:05:28 13° SSW 05:05:28 13° SSW 05:06:10 10° S
IRS-1C Rocket 4.1 04:57:27 10° NNE 05:02:44 76° ESE 05:07:58 10° S
Cosmos 1862 Rocket 3.7 05:12:48 70° SE 05:12:48 70° SE 05:16:47 10° S
PAYLOAD B 4.3 05:08:45 10° N 05:13:28 57° NNW 05:13:28 57° NNW
Meteor 1-28 Rocket 3.6 05:14:19 10° SSE 05:17:47 60° E 05:17:47 60° E
Delta 2 Rocket 4.0 05:24:55 43° S 05:24:55 43° S 05:28:49 10° ESE
Cosmos 1864 Rocket 4.4 05:18:33 10° NNW 05:24:48 70° W 05:30:57 10° S
Landsat 4 3.7 05:24:49 10° SSE 05:28:30 75° ENE 05:28:55 66° NNE
Cosmos 1354 Rocket 3.8 05:28:31 42° NNW 05:30:15 74° WSW 05:35:27 10° S
USA 32 3.9 05:31:22 10° S 05:36:35 84° W 05:41:51 10° N
Cosmos 2237 Rocket 4.1 05:39:35 14° NNW 05:39:35 14° NNW 05:40:46 10° N
Hubble Space Telescope 2.8 05:35:52 17° SSW 05:36:55 18° S 05:39:47 10° SE
SKYMED 2 3.9 05:39:12 10° SSE 05:43:29 66° ENE 05:47:48 10° N
Cosmos 2233 Rocket 3.8 05:38:49 10° N 05:44:58 77° W 05:51:04 10° S
ATLAS 5 CENTAUR R/B 3.3 05:42:32 10° S 05:46:40 36° ESE 05:51:07 10° NE
Abrixas rocket 4.4 05:49:49 16° N 05:49:49 16° N 05:51:45 10° NE
Cosmos 1825 2.2 05:46:26 10° S 05:50:12 77° E 05:53:59 10° N
DELTA 2 R/B (1) 3.5 05:48:34 35° W 05:51:02 80° SSW 05:56:37 10° ESE
BREEZE-M DEB (TANK) 4.0 05:50:45 28° NW 05:51:44 33° N 05:55:07 10° ENE
Meteor 2-3 Rocket 4.0 05:53:52 10° SSW 05:59:21 44° WNW 06:04:49 10° N
Cosmos 2221 Rocket 4.1 05:55:06 10° N 05:59:31 60° E 06:03:58 10° SSE
Intercosmos 25 3.3 05:57:03 10° N 06:00:24 82° E 06:05:00 10° S
Lacrosse 5 rocket 2.2 05:59:42 31° WNW 06:00:52 36° NW 06:05:11 10° NNE
Okean-O 2.5 05:57:31 10° N 06:01:57 68° WNW 06:06:20 10° SSW
Meteor 1-10 Rocket 4.5 05:57:40 10° N 06:03:38 81° E 06:09:34 10° SSE
Atlas Centaur 2 4.1 05:58:47 17° WSW 06:04:02 34° SSW 06:11:28 10° SE
Cosmos 1703 Rocket 3.5 06:07:16 10° NNW 06:11:35 59° W 06:15:50 10° S
SL-16 R/B 3.3 06:11:34 21° WNW 06:12:36 22° NW 06:16:57 10° N
Cosmos 1441 Rocket 3.9 06:09:27 10° N 06:13:10 55° E 06:16:49 10° SSE
Cosmos 1606 2.7 06:10:26 10° NNW 06:14:11 58° W 06:17:56 10° S
Cosmos 1869 Rocket 3.5 06:11:03 10° SSW 06:15:22 65° W 06:19:46 10° N
Cosmos 1603 3.8 06:11:39 10° SW 06:17:09 55° WNW 06:22:45 10° NNE
NOSS 3-1 (C) 4.1 06:14:14 10° NW 06:21:58 74° WSW 06:30:27 10° SSE
Cosmos 1782 3.1 06:22:28 10° NNW 06:26:14 43° W 06:29:58 10° SSW
NOAA 6 4.4 06:21:28 10° N 06:26:15 41° WNW 06:31:00 10° SW
CZ-2C R/B 2.4 06:26:19 10° N 06:31:29 73° WNW 06:36:31 10° SSW
COSMO-SKYMED 1 3.2 06:27:40 10° SSW 06:31:37 34° W 06:35:36 10° NNW
Cosmos 1408 3.7 06:30:48 10° SW 06:33:53 24° WNW 06:37:01 10° NNW
Cosmos 2369 Rocket 2.2 06:33:02 10° NNW 06:38:39 83° WSW 06:44:15 10° SSE
Ariane Rocket 3.9 06:35:45 10° NNE 06:40:43 53° E 06:45:38 10° S
PAYLOAD A 4.5 06:38:30 10° N 06:43:23 41° WNW 06:48:22 10° SW
Cosmos 405 Rocket 3.0 06:40:38 10° NNW 06:44:10 42° W 06:47:42 10° SSW
SL-8 R/B 4.0 06:40:02 10° W 06:44:40 50° NNW 06:49:20 10° NE
Cosmos 2034 Rocket 4.0 06:38:34 10° N 06:44:50 83° W 06:51:01 10° S
Cosmos 968 Rocket 4.1 06:41:23 10° NW 06:46:10 36° W 06:50:55 10° SSW
NOSS 3-1 (A) 4.2 06:38:45 10° NW 06:46:28 71° WSW 06:54:56 10° SSE
Thor Agena Rocket 3.5 06:41:24 10° S 06:46:29 78° WSW 06:51:34 10° NNW
PSLV R/B 3.2 06:44:01 11° W 06:46:59 61° N 06:50:09 10° ENE
IDEFIX/ARIANE 42P 3.0 06:43:08 10° N 06:47:55 39° WNW 06:52:41 10° SW
Cosmos 1862 3.9 06:54:38 10° SW 06:58:14 34° WNW 07:01:53 10° NNW
BREEZE-M DEB (TANK) 4.5 06:41:50 10° W 06:59:09 41° NNW 07:03:14 10° NE
Lacrosse 4 Rocket 1.8 06:55:17 10° SSW 06:59:39 73° ESE 07:03:56 10° NNE
IRAS Rocket 4.2 06:55:24 10° NNE 07:00:54 83° WNW 07:06:24 10° SSW
